Oconto, WI

5:40 AM CDT on September 20, 2019 (GMT -0500)
Oconto Municipal

Weather History for KOCQ - July, 2019

Change the Weather History Date:

Saturday, July 20, 2019

  Actual Average Record
Temperature  
Mean Temperature 70 °F -  
Max Temperature 75 °F 82 °F 87 °F (2016)
Min Temperature 64 °F 58 °F 54 °F (2014)
Cooling Degree Days 4    
Growing Degree Days 20 (Base 50)    
Moisture  
Dew Point 67 °F    
Average Humidity 88    
Maximum Humidity 97    
Minimum Humidity 75    
Precipitation  
Precipitation 0.72 in - - ()
Sea Level Pressure  
Sea Level Pressure 29.81 in    
Wind  
Wind Speed 5 mph (WNW)    
Max Wind Speed 22 mph    
Max Gust Speed 38 mph    
Visibility 10 miles    
Events      
Averages and records for this station are not official NWS values.
T = Trace of Precipitation, MM = Missing Value Source: NWS Daily Summary

Daily Weather History Graph

Daily Weather History Graph

Search for Another Location

Airport or City:

Astronomy

Jul. 20, 2019 Rise Set
Actual Time 5:24 AM CDT 8:31 PM CDT
Civil Twilight 4:49 AM CDT 9:06 PM CDT
Nautical Twilight 4:03 AM CDT 9:51 PM CDT
Astronomical Twilight 3:08 AM CDT 10:45 PM CDT
Moon 10:50 PM CDT 8:54 AM CDT
Length of Visible Light 16h 17m
Length of Day
15h 06m
Waning Gibbous, 87% of the Moon is Illuminated
Jul 20
Waning Gibbous
Jul 24
Last Quarter
Jul 31
New
Aug 7
First Quarter
Aug 15
Full

Hourly Weather History & Observations

Time (CDT) Temp. Dew Point Humidity Pressure Visibility Wind Dir Wind Speed Gust Speed Precip Events Conditions
12:15 AM 71.8 °F 67.5 °F 86% 29.74 in 10.0 mi South 9.2 mph - N/A   Clear
12:35 AM 71.2 °F 68.2 °F 90% 29.74 in 10.0 mi South 6.9 mph - N/A   Clear
12:55 AM 71.6 °F 68.2 °F 89% 29.74 in 10.0 mi South 5.8 mph - N/A   Clear
1:15 AM 72.1 °F 68.5 °F 88% 29.74 in 10.0 mi South 5.8 mph - N/A   Clear
1:35 AM 72.1 °F 68.4 °F 88% 29.74 in 10.0 mi South 5.8 mph - N/A   Clear
1:55 AM 72.1 °F 68.4 °F 88% 29.74 in 10.0 mi South 4.6 mph - N/A   Clear
2:15 AM 71.6 °F 68.0 °F 88% 29.74 in 10.0 mi SW 4.6 mph - N/A   Clear
2:35 AM 71.6 °F 68.2 °F 89% 29.74 in 10.0 mi SSW 5.8 mph - N/A   Clear
2:55 AM 71.6 °F 68.9 °F 91% 29.74 in 10.0 mi South 8.1 mph - N/A   Clear
3:15 AM 72.5 °F 69.8 °F 91% 29.75 in 10.0 mi SSW 3.5 mph - N/A   Mostly Cloudy
3:35 AM 72.5 °F 69.8 °F 91% 29.76 in 10.0 mi Calm Calm - N/A   Overcast
3:55 AM 72.5 °F 70.2 °F 92% 29.76 in 10.0 mi Calm Calm - N/A   Overcast
4:15 AM 71.8 °F 70.2 °F 95% 29.76 in 10.0 mi Calm Calm - N/A   Overcast
4:35 AM 72.5 °F 70.7 °F 94% 29.78 in 10.0 mi Calm Calm - N/A   Overcast
4:55 AM 72.0 °F 70.7 °F 96% 29.79 in 10.0 mi Calm Calm - N/A   Overcast
5:15 AM 72.9 °F 70.7 °F 93% 29.78 in 10.0 mi Calm Calm - N/A   Overcast
5:35 AM 72.7 °F 70.9 °F 94% 29.78 in 10.0 mi Calm Calm - N/A   Overcast
5:55 AM 72.9 °F 70.7 °F 93% 29.78 in 10.0 mi Calm Calm - N/A   Overcast
6:15 AM 73.0 °F 70.7 °F 92% 29.79 in 10.0 mi West 3.5 mph - N/A   Overcast
6:35 AM 73.0 °F 70.7 °F 92% 29.79 in 10.0 mi Calm Calm - N/A   Overcast
6:55 AM 73.0 °F 70.7 °F 92% 29.79 in 10.0 mi Calm Calm - N/A   Overcast
7:15 AM 73.0 °F 70.9 °F 93% 29.79 in 10.0 mi SSW 4.6 mph - N/A   Overcast
7:35 AM 73.6 °F 71.4 °F 93% 29.78 in 10.0 mi Calm Calm - N/A   Overcast
7:55 AM 73.9 °F 71.4 °F 92% 29.78 in 10.0 mi Calm Calm - N/A   Overcast
8:15 AM 74.3 °F 71.6 °F 91% 29.77 in 10.0 mi Calm Calm - N/A   Overcast
8:35 AM 74.7 °F 71.6 °F 90% 29.77 in 10.0 mi Calm Calm - N/A   Overcast
8:55 AM 74.8 °F 71.8 °F 90% 29.77 in 10.0 mi Calm Calm - N/A   Overcast
9:15 AM 75.2 °F 72.1 °F 90% 29.78 in 10.0 mi NE 3.5 mph - N/A   Overcast
9:35 AM 74.8 °F 72.3 °F 92% 29.79 in 10.0 mi Calm Calm - N/A   Overcast
9:55 AM 74.8 °F 71.8 °F 90% 29.77 in 5.0 mi North 4.6 mph - N/A   Overcast
10:15 AM 74.5 °F 72.1 °F 92% 29.77 in 5.0 mi North 4.6 mph - N/A   Overcast
10:35 AM 73.2 °F 71.4 °F 94% 29.76 in 7.0 mi NNE 5.8 mph - N/A   Overcast
10:55 AM 73.2 °F 71.6 °F 95% 29.79 in 10.0 mi WSW 3.5 mph - 0.03 in   Overcast
11:15 AM 71.8 °F 70.3 °F 95% 29.73 in 1.2 mi ENE 11.5 mph 19.6 mph 0.22 in   Overcast
11:35 AM 70.7 °F 68.9 °F 94% 29.78 in 10.0 mi NNE 8.1 mph - 0.30 in   Mostly Cloudy
11:55 AM 70.2 °F 69.1 °F 96% 29.78 in 5.0 mi NNE 5.8 mph - 0.34 in   Mostly Cloudy
12:15 PM 70.3 °F 69.4 °F 97% 29.93 in 5.0 mi West 21.9 mph 27.6 mph 0.07 in   Overcast
12:35 PM 69.3 °F 66.7 °F 92% 29.97 in 5.0 mi WNW 17.3 mph 38.0 mph 0.32 in   Overcast
12:55 PM 68.0 °F 64.8 °F 89% 29.86 in 10.0 mi North 13.8 mph 19.6 mph 0.34 in   Overcast
1:15 PM 68.0 °F 64.6 °F 89% 29.79 in 10.0 mi NNE 16.1 mph 24.2 mph N/A   Scattered Clouds
1:35 PM 68.0 °F 63.5 °F 85% 29.77 in 10.0 mi ENE 9.2 mph - N/A   Scattered Clouds
1:55 PM 68.9 °F 62.4 °F 80% 29.76 in 10.0 mi NE 9.2 mph 23.0 mph N/A   Scattered Clouds
2:15 PM 70.0 °F 63.0 °F 78% 29.78 in 10.0 mi East 4.6 mph - N/A   Mostly Cloudy
2:35 PM 70.5 °F 64.2 °F 80% 29.85 in 10.0 mi WNW 8.1 mph - N/A   Overcast
2:55 PM 69.8 °F 64.6 °F 83% 29.91 in 10.0 mi West 8.1 mph 23.0 mph N/A   Overcast
3:15 PM 69.4 °F 63.1 °F 80% 29.92 in 10.0 mi West 15.0 mph 20.7 mph N/A   Overcast
3:35 PM 68.7 °F 63.0 °F 82% 29.88 in 10.0 mi West 6.9 mph - N/A   Overcast
3:55 PM 67.6 °F 63.1 °F 85% 29.82 in 10.0 mi South 3.5 mph - 0.01 in   Overcast
4:15 PM 68.2 °F 63.7 °F 85% 29.79 in 10.0 mi Calm Calm - N/A   Scattered Clouds
4:35 PM 68.4 °F 64.4 °F 87% 29.83 in 10.0 mi NW 6.9 mph - N/A   Clear
4:55 PM 69.1 °F 64.2 °F 84% 29.83 in 10.0 mi NW 4.6 mph - N/A   Clear
5:15 PM 69.8 °F 63.0 °F 79% 29.82 in 10.0 mi NW 6.9 mph - N/A   Clear
5:35 PM 69.8 °F 63.3 °F 80% 29.84 in 10.0 mi NNW 6.9 mph - N/A   Clear
5:55 PM 70.0 °F 63.3 °F 79% 29.85 in 10.0 mi NW 4.6 mph - N/A   Clear
6:15 PM 70.5 °F 63.1 °F 77% 29.84 in 10.0 mi NW 4.6 mph - N/A   Clear
6:35 PM 70.7 °F 62.6 °F 75% 29.86 in 10.0 mi WNW 4.6 mph - N/A   Clear
6:55 PM 71.4 °F 63.7 °F 76% 29.85 in 10.0 mi WNW 4.6 mph - N/A   Clear
7:15 PM 70.7 °F 64.0 °F 79% 29.86 in 10.0 mi WNW 4.6 mph - N/A   Scattered Clouds
7:35 PM 70.0 °F 64.0 °F 81% 29.86 in 10.0 mi NW 3.5 mph - N/A   Scattered Clouds
7:55 PM 69.8 °F 64.4 °F 83% 29.86 in 10.0 mi NW 4.6 mph - N/A   Mostly Cloudy
8:15 PM 69.8 °F 64.2 °F 82% 29.86 in 10.0 mi Calm Calm - N/A   Overcast
8:35 PM 68.9 °F 63.9 °F 84% 29.88 in 10.0 mi WNW 3.5 mph - N/A   Overcast
8:55 PM 67.3 °F 63.7 °F 88% 29.88 in 10.0 mi Calm Calm - N/A   Mostly Cloudy
9:15 PM 65.1 °F 63.5 °F 94% 29.89 in 10.0 mi Calm Calm - N/A   Scattered Clouds
9:35 PM 64.9 °F 63.5 °F 95% 29.91 in 10.0 mi Calm Calm - N/A   Clear
9:55 PM 64.9 °F 63.5 °F 95% 29.92 in 10.0 mi Calm Calm - N/A   Clear
10:15 PM 66.2 °F 63.1 °F 90% 29.92 in 10.0 mi Calm Calm - N/A   Clear
10:35 PM 66.0 °F 62.4 °F 88% 29.92 in 10.0 mi Calm Calm - N/A   Clear
10:55 PM 65.8 °F 61.3 °F 85% 29.91 in 10.0 mi Calm Calm - N/A   Clear
11:15 PM 64.4 °F 61.2 °F 89% 29.91 in 10.0 mi Calm Calm - N/A   Clear